Home   Weather   Bursa   Past weeks

Flag for Turkey Past Weather in Bursa, Turkey — Yesterday and Last 2 Weeks

Now
76 °F

Sunny.


Feels Like: 78 °F
Forecast: 47 / 85 °F
Wind: 2 mph from South

Location: Bursa

Current Time: Apr 28, 2017 at 1:46:25 pm

Latest Report: Apr 28, 2017 at 12:00 pm


Visibility: 9 mi

Pressure: 30.00 "Hg

Humidity: 41%

Dew Point: 50 °F

Location of BursaLocation

Past Weather in Bursa — Graph

°F

Bursa Temperature Yesterday

Maximum temperature yesterday: 77 °F (at 2:00 pm)
Minimum temperature yesterday: 45 °F (at 6:00 am)
Average temperature yesterday: 67 °F

High & Low Weather Summary for the Past Weeks

 TemperatureHumidityPressure
High78 °F (Apr 20, 3:00 pm)99% (Apr 19, 12:00 am)30.27 "Hg (Apr 19, 12:00 am)
Low37 °F (Apr 25, 6:00 am)31% (Apr 26, 6:00 pm)29.70 "Hg (Apr 20, 4:00 pm)
Average58 °F66%29.97 "Hg
* Reported Apr 13 12:00 pm — Apr 28 12:00 pm, Bursa, Weather by CustomWeather, © 2017

Note: Actual official high and low records may vary slightly from our data, if they occured in-between our weather recording intervals... More about our weather records

Advertising

Bursa Weather History for the Previous 24 Hours

Scroll right to see more
 ConditionsComfort  
Time TempWeatherWind HumidityBarometerVisibility
12:00 pm
Fri, Apr 28
76 °FSunny.2 mph41%30.00 "Hg9 mi
11:00 am72 °FSunny.2 mph50%30.00 "Hg9 mi
10:00 am71 °FSunny.1 mph54%30.02 "Hg9 mi
9:00 am65 °FSunny.1 mph60%30.02 "Hg9 mi
6:00 am46 °FClear.1 mph92%30.01 "Hg6 mi
3:00 am49 °FClear.1 mph86%30.02 "Hg6 mi
12:00 am55 °FClear.No wind73%30.02 "Hg7 mi
9:00 pm
Thu, Apr 27
61 °FClear.2 mph51%30.02 "Hg9 mi
8:00 pm67 °FClear.2 mph43%30.00 "Hg9 mi
7:00 pm74 °FSunny.3 mph35%30.00 "Hg9 mi
6:00 pm75 °FSunny.6 mph35%30.00 "Hg9 mi
5:00 pm76 °FSunny.7 mph31%30.00 "Hg9 mi
4:00 pm76 °FSunny.8 mph36%30.00 "Hg9 mi
3:00 pm76 °FSunny.8 mph40%30.01 "Hg9 mi
2:00 pm77 °FSunny.6 mph41%30.01 "Hg9 mi
1:00 pm76 °FSunny.2 mph39%30.03 "Hg9 mi
Weather by CustomWeather, © 2017

See weather overviewHow to use our weather pages